QPF
0.01 0.01 0.01 0.01 0.00 0.01 0.01 0.00 0.01 0.01 0.01 0.02 0.02 0.02 0.03 0.04 0.04 0.05 0.07 0.05 0.05 0.05 0.04 0.04 0.03 0.03 0.03 0.03 0.05 0.06 0.05 0.04 0.03 0.04 0.04 0.05 0.06 0.08 0.05 0.04 0.04 0.04 0.06
0.01 0.01 0.01 0.01 0.01 0.02 0.02 0.01 0.00 0.01 0.01 0.01 0.02 0.02 0.01 0.02 0.04 0.05 0.05 0.05 0.06 0.05 0.04 0.03 0.03 0.03 0.03 0.02 0.03 0.04 0.03 0.03 0.03 0.03 0.03 0.03 0.04 0.05 0.04 0.05 0.07 0.07 0.07
0.01 0.01 0.02 0.02 0.02 0.02 0.03 0.02 0.01 0.00 0.00 0.00 0.01 0.01 0.01 0.03 0.05 0.06 0.05 0.04 0.06 0.06 0.04 0.03 0.02 0.02 0.02 0.02 0.02 0.02 0.03 0.02 0.03 0.02 0.03 0.03 0.03 0.04 0.05 0.07 0.08 0.09 0.09
0.01 0.02 0.03 0.02 0.02 0.02 0.05 0.05 0.02 0.01 0.01 0.01 0.01 0.01 0.01 0.02 0.02 0.03 0.03 0.03 0.04 0.06 0.05 0.04 0.03 0.02 0.02 0.02 0.01 0.02 0.02 0.02 0.03 0.03 0.03 0.04 0.03 0.04 0.04 0.05 0.06 0.05 0.05
0.03 0.01 0.01 0.01 0.01 0.02 0.04 0.07 0.05 0.03 0.03 0.02 0.01 0.02 0.01 0.02 0.02 0.02 0.02 0.03 0.04 0.06 0.05 0.03 0.03 0.02 0.02 0.02 0.02 0.02 0.02 0.02 0.03 0.03 0.04 0.04 0.03 0.03 0.03 0.05 0.05 0.03 0.02
0.03 0.01 0.01 0.01 0.01 0.02 0.03 0.05 0.05 0.05 0.04 0.03 0.03 0.03 0.02 0.02 0.02 0.02 0.02 0.03 0.05 0.06 0.06 0.05 0.04 0.03 0.02 0.03 0.03 0.03 0.04 0.03 0.03 0.04 0.04 0.05 0.03 0.03 0.04 0.03 0.04 0.02 0.01
0.04 0.02 0.02 0.02 0.02 0.02 0.02 0.03 0.03 0.04 0.03 0.03 0.04 0.04 0.03 0.03 0.02 0.02 0.02 0.03 0.03 0.04 0.06 0.06 0.05 0.03 0.04 0.05 0.04 0.04 0.05 0.04 0.04 0.04 0.04 0.05 0.05 0.03 0.04 0.03 0.03 0.01 0.01
0.03 0.02 0.02 0.02 0.02 0.02 0.02 0.03 0.03 0.03 0.03 0.03 0.04 0.04 0.05 0.04 0.03 0.02 0.02 0.03 0.02 0.03 0.04 0.04 0.04 0.04 0.04 0.05 0.04 0.04 0.04 0.04 0.04 0.04 0.05 0.06 0.07 0.05 0.05 0.05 0.06 0.04 0.02
0.02 0.01 0.01 0.01 0.02 0.02 0.02 0.02 0.02 0.03 0.05 0.04 0.04 0.05 0.05 0.04 0.03 0.03 0.03 0.03 0.03 0.03 0.03 0.03 0.04 0.04 0.05 0.04 0.03 0.03 0.03 0.03 0.04 0.05 0.05 0.06 0.05 0.05 0.03 0.05 0.08 0.09 0.07
0.01 0.01 0.01 0.01 0.01 0.02 0.02 0.01 0.01 0.02 0.03 0.03 0.04 0.06 0.08 0.06 0.05 0.04 0.03 0.05 0.05 0.04 0.03 0.03 0.04 0.05 0.04 0.04 0.04 0.03 0.02 0.02 0.02 0.03 0.04 0.05 0.06 0.05 0.03 0.03 0.06 0.09 0.10
0.01 0.01 0.01 0.01 0.01 0.02 0.02 0.01 0.02 0.03 0.04 0.06 0.07 0.08 0.09 0.06 0.05 0.05 0.05 0.06 0.05 0.04 0.03 0.04 0.07 0.07 0.05 0.04 0.05 0.04 0.02 0.02 0.02 0.04 0.04 0.05 0.05 0.04 0.02 0.02 0.03 0.06 0.07
0.01 0.01 0.01 0.01 0.01 0.03 0.04 0.03 0.03 0.03 0.06 0.08 0.07 0.06 0.05 0.05 0.05 0.04 0.04 0.05 0.04 0.04 0.05 0.05 0.06 0.06 0.04 0.05 0.05 0.04 0.03 0.03 0.02 0.03 0.04 0.04 0.04 0.03 0.01 0.01 0.02 0.03 0.04
0.01 0.01 0.02 0.01 0.02 0.03 0.03 0.02 0.02 0.03 0.05 0.04 0.02 0.03 0.04 0.04 0.05 0.05 0.06 0.06 0.05 0.06 0.06 0.05 0.05 0.04 0.05 0.06 0.07 0.06 0.05 0.04 0.03 0.03 0.03 0.02 0.02 0.01 0.01 0.01 0.01 0.02 0.04
0.01 0.01 0.01 0.01 0.01 0.02 0.02 0.02 0.02 0.02 0.04 0.04 0.03 0.03 0.03 0.04 0.05 0.06 0.06 0.05 0.06 0.07 0.08 0.06 0.05 0.04 0.05 0.04 0.04 0.06 0.05 0.05 0.04 0.03 0.02 0.02 0.02 0.01 0.01 0.01 0.01 0.01 0.02
0.01 0.01 0.01 0.01 0.01 0.01 0.01 0.01 0.01 0.01 0.01 0.02 0.03 0.05 0.04 0.05 0.06 0.07 0.08 0.07 0.06 0.06 0.06 0.08 0.08 0.08 0.07 0.06 0.07 0.06 0.04 0.04 0.03 0.02 0.02 0.01 0.02 0.01 0.01 0.01 0.01 0.01 0.02
0.01 0.01 0.01 0.01 0.01 0.01 0.01 0.01 0.00 0.00 0.01 0.01 0.02 0.03 0.03 0.03 0.04 0.06 0.08 0.10 0.09 0.08 0.07 0.07 0.08 0.08 0.06 0.06 0.07 0.05 0.03 0.02 0.02 0.01 0.01 0.01 0.01 0.00 0.01 0.01 0.01 0.02 0.02
0.01 0.01 0.01 0.01 0.01 0.01 0.01 0.01 0.01 0.01 0.01 0.02 0.02 0.02 0.02 0.03 0.05 0.05 0.07 0.09 0.10 0.10 0.08 0.07 0.07 0.06 0.05 0.05 0.05 0.04 0.03 0.02 0.02 0.02 0.02 0.01 0.01 0.01 0.00 0.01 0.01 0.01 0.03
0.01 0.01 0.01 0.01 0.01 0.01 0.02 0.02 0.02 0.01 0.03 0.04 0.03 0.03 0.02 0.03 0.04 0.05 0.06 0.07 0.09 0.09 0.08 0.07 0.07 0.06 0.05 0.05 0.05 0.05 0.04 0.03 0.03 0.02 0.02 0.01 0.01 0.01 0.01 0.02 0.03 0.02 0.02
0.01 0.01 0.01 0.01 0.01 0.01 0.02 0.04 0.04 0.05 0.04 0.04 0.04 0.06 0.06 0.05 0.05 0.05 0.06 0.08 0.09 0.10 0.09 0.10 0.10 0.07 0.06 0.07 0.07 0.07 0.06 0.05 0.04 0.03 0.03 0.01 0.01 0.02 0.03 0.03 0.02 0.01 0.02
0.00 0.01 0.01 0.01 0.01 0.01 0.02 0.04 0.04 0.03 0.03 0.05 0.11 0.13 0.11 0.10 0.10 0.08 0.06 0.07 0.08 0.10 0.11 0.11 0.08 0.06 0.07 0.08 0.09 0.09 0.08 0.08 0.07 0.04 0.03 0.02 0.02 0.03 0.03 0.02 0.02 0.01 0.02
0.00 0.00 0.00 0.01 0.01 0.01 0.02 0.03 0.04 0.04 0.04 0.04 0.06 0.11 0.15 0.16 0.12 0.07 0.05 0.06 0.07 0.07 0.07 0.07 0.08 0.07 0.07 0.08 0.08 0.08 0.09 0.08 0.07 0.05 0.04 0.03 0.03 0.03 0.03 0.03 0.02 0.01 0.02
0.01 0.01 0.01 0.01 0.01 0.01 0.02 0.02 0.04 0.06 0.06 0.06 0.10 0.13 0.11 0.07 0.05 0.04 0.04 0.04 0.05 0.05 0.05 0.05 0.06 0.06 0.08 0.08 0.08 0.09 0.09 0.08 0.06 0.04 0.04 0.04 0.05 0.06 0.05 0.04 0.03 0.03 0.02
0.01 0.01 0.01 0.01 0.01 0.01 0.01 0.02 0.04 0.10 0.09 0.06 0.07 0.06 0.05 0.03 0.03 0.02 0.03 0.04 0.05 0.04 0.05 0.06 0.05 0.08 0.11 0.12 0.11 0.11 0.10 0.09 0.06 0.04 0.04 0.05 0.06 0.07 0.07 0.06 0.05 0.04 0.03
0.02 0.01 0.01 0.01 0.01 0.01 0.01 0.02 0.03 0.05 0.07 0.05 0.05 0.04 0.05 0.05 0.05 0.04 0.04 0.04 0.05 0.05 0.06 0.07 0.07 0.10 0.14 0.13 0.12 0.11 0.10 0.08 0.06 0.05 0.05 0.06 0.07 0.08 0.08 0.07 0.06 0.04 0.03
0.01 0.01 0.01 0.01 0.01 0.00 0.01 0.01 0.03 0.06 0.07 0.08 0.07 0.06 0.08 0.06 0.06 0.06 0.06 0.07 0.07 0.08 0.08 0.07 0.08 0.08 0.10 0.14 0.12 0.10 0.09 0.08 0.08 0.08 0.08 0.08 0.08 0.08 0.07 0.05 0.04 0.03 0.02
0.02 0.01 0.01 0.01 0.02 0.01 0.01 0.01 0.02 0.04 0.06 0.07 0.08 0.08 0.07 0.08 0.09 0.10 0.12 0.11 0.10 0.10 0.09 0.09 0.08 0.07 0.08 0.10 0.10 0.09 0.08 0.10 0.12 0.12 0.11 0.10 0.08 0.06 0.04 0.03 0.02 0.01 0.01
MSLP
1008.99 1008.93 1008.88 1008.82 1008.74 1008.67 1008.61 1008.62 1008.70 1008.86 1009.11 1009.41 1009.71 1009.96 1010.13 1010.17 1010.09 1009.90 1009.65 1009.39 1009.17 1009.03 1009.00 1009.08 1009.26 1009.52 1009.82 1010.14 1010.48 1010.81 1011.15 1011.50 1011.86 1012.23 1012.57 1012.88 1013.12 1013.26 1013.31 1013.26 1013.13 1012.97 1012.82
1008.77 1008.77 1008.75 1008.70 1008.60 1008.49 1008.39 1008.38 1008.47 1008.69 1009.03 1009.44 1009.85 1010.21 1010.46 1010.55 1010.49 1010.29 1010.01 1009.72 1009.47 1009.32 1009.28 1009.37 1009.56 1009.83 1010.12 1010.43 1010.73 1011.04 1011.35 1011.67 1012.03 1012.39 1012.76 1013.09 1013.36 1013.52 1013.57 1013.51 1013.37 1013.17 1012.97
1008.34 1008.42 1008.47 1008.46 1008.37 1008.25 1008.14 1008.11 1008.22 1008.47 1008.86 1009.35 1009.85 1010.30 1010.62 1010.77 1010.74 1010.56 1010.29 1010.00 1009.75 1009.60 1009.57 1009.67 1009.86 1010.10 1010.37 1010.63 1010.88 1011.12 1011.37 1011.65 1011.97 1012.34 1012.72 1013.08 1013.39 1013.60 1013.70 1013.67 1013.54 1013.35 1013.15
1007.72 1007.90 1008.05 1008.10 1008.06 1007.96 1007.86 1007.83 1007.93 1008.19 1008.61 1009.13 1009.69 1010.19 1010.57 1010.77 1010.79 1010.66 1010.43 1010.17 1009.96 1009.84 1009.83 1009.93 1010.11 1010.32 1010.54 1010.73 1010.90 1011.06 1011.23 1011.45 1011.73 1012.07 1012.46 1012.86 1013.21 1013.49 1013.65 1013.69 1013.62 1013.47 1013.30
1007.05 1007.31 1007.55 1007.69 1007.71 1007.65 1007.56 1007.52 1007.61 1007.86 1008.27 1008.79 1009.36 1009.89 1010.31 1010.56 1010.63 1010.56 1010.40 1010.21 1010.05 1009.98 1010.01 1010.13 1010.30 1010.49 1010.65 1010.78 1010.86 1010.93 1011.01 1011.15 1011.37 1011.68 1012.06 1012.47 1012.87 1013.20 1013.43 1013.55 1013.56 1013.48 1013.37
1006.44 1006.77 1007.08 1007.28 1007.36 1007.33 1007.25 1007.20 1007.26 1007.48 1007.85 1008.34 1008.89 1009.42 1009.85 1010.14 1010.28 1010.28 1010.19 1010.09 1010.02 1010.01 1010.09 1010.24 1010.42 1010.59 1010.72 1010.78 1010.79 1010.78 1010.78 1010.84 1010.99 1011.25 1011.59 1012.00 1012.41 1012.78 1013.07 1013.26 1013.34 1013.34 1013.30
1006.02 1006.38 1006.72 1006.97 1007.07 1007.06 1006.97 1006.90 1006.92 1007.08 1007.39 1007.83 1008.33 1008.83 1009.27 1009.58 1009.76 1009.84 1009.84 1009.82 1009.84 1009.92 1010.06 1010.25 1010.45 1010.62 1010.73 1010.76 1010.72 1010.65 1010.59 1010.58 1010.67 1010.86 1011.16 1011.52 1011.92 1012.29 1012.61 1012.84 1012.98 1013.05 1013.07
1005.90 1006.23 1006.56 1006.80 1006.90 1006.88 1006.77 1006.66 1006.62 1006.71 1006.95 1007.31 1007.75 1008.20 1008.62 1008.94 1009.16 1009.29 1009.36 1009.43 1009.52 1009.67 1009.88 1010.12 1010.35 1010.55 1010.67 1010.70 1010.66 1010.57 1010.47 1010.42 1010.45 1010.59 1010.82 1011.12 1011.46 1011.80 1012.10 1012.34 1012.51 1012.62 1012.70
1006.10 1006.37 1006.65 1006.84 1006.89 1006.82 1006.67 1006.51 1006.41 1006.42 1006.58 1006.86 1007.22 1007.62 1007.99 1008.30 1008.52 1008.68 1008.80 1008.93 1009.08 1009.28 1009.54 1009.82 1010.10 1010.34 1010.49 1010.56 1010.55 1010.48 1010.40 1010.34 1010.34 1010.43 1010.59 1010.82 1011.09 1011.37 1011.62 1011.83 1012.00 1012.12 1012.23
1006.61 1006.79 1006.97 1007.07 1007.05 1006.92 1006.71 1006.48 1006.32 1006.27 1006.34 1006.54 1006.82 1007.15 1007.46 1007.73 1007.93 1008.09 1008.22 1008.35 1008.53 1008.75 1009.03 1009.35 1009.67 1009.94 1010.16 1010.30 1010.35 1010.35 1010.31 1010.28 1010.29 1010.35 1010.47 1010.63 1010.82 1011.02 1011.20 1011.36 1011.49 1011.61 1011.72
1007.38 1007.44 1007.50 1007.49 1007.38 1007.17 1006.90 1006.62 1006.40 1006.28 1006.29 1006.41 1006.61 1006.85 1007.09 1007.29 1007.44 1007.55 1007.64 1007.75 1007.90 1008.11 1008.39 1008.70 1009.04 1009.36 1009.63 1009.84 1009.99 1010.08 1010.13 1010.16 1010.21 1010.28 1010.38 1010.49 1010.62 1010.75 1010.86 1010.96 1011.06 1011.15 1011.26
1008.29 1008.23 1008.17 1008.05 1007.84 1007.55 1007.22 1006.90 1006.64 1006.47 1006.42 1006.46 1006.58 1006.74 1006.88 1006.99 1007.06 1007.10 1007.13 1007.17 1007.26 1007.42 1007.64 1007.93 1008.26 1008.59 1008.91 1009.19 1009.43 1009.61 1009.76 1009.89 1010.01 1010.12 1010.23 1010.34 1010.43 1010.51 1010.58 1010.64 1010.70 1010.77 1010.87
1009.25 1009.08 1008.90 1008.67 1008.37 1008.02 1007.64 1007.28 1006.99 1006.79 1006.69 1006.67 1006.71 1006.77 1006.82 1006.84 1006.81 1006.76 1006.69 1006.65 1006.65 1006.73 1006.88 1007.11 1007.40 1007.71 1008.04 1008.36 1008.66 1008.93 1009.17 1009.39 1009.59 1009.77 1009.93 1010.06 1010.17 1010.25 1010.30 1010.35 1010.40 1010.46 1010.56
1010.16 1009.89 1009.61 1009.28 1008.91 1008.50 1008.09 1007.71 1007.40 1007.17 1007.02 1006.95 1006.91 1006.89 1006.85 1006.77 1006.65 1006.51 1006.35 1006.22 1006.13 1006.12 1006.18 1006.32 1006.53 1006.79 1007.08 1007.40 1007.71 1008.03 1008.33 1008.63 1008.91 1009.16 1009.39 1009.59 1009.74 1009.87 1009.96 1010.03 1010.10 1010.18 1010.30
1010.95 1010.60 1010.22 1009.82 1009.38 1008.94 1008.50 1008.11 1007.78 1007.53 1007.34 1007.21 1007.11 1007.01 1006.89 1006.73 1006.54 1006.32 1006.10 1005.89 1005.73 1005.63 1005.59 1005.63 1005.74 1005.90 1006.11 1006.36 1006.64 1006.94 1007.26 1007.59 1007.93 1008.26 1008.57 1008.85 1009.10 1009.31 1009.47 1009.61 1009.74 1009.88 1010.03
1011.56 1011.13 1010.68 1010.22 1009.73 1009.26 1008.80 1008.39 1008.05 1007.77 1007.54 1007.36 1007.19 1007.03 1006.85 1006.64 1006.40 1006.15 1005.89 1005.65 1005.44 1005.27 1005.15 1005.09 1005.07 1005.11 1005.19 1005.31 1005.49 1005.72 1006.00 1006.32 1006.68 1007.07 1007.46 1007.85 1008.21 1008.53 1008.81 1009.06 1009.28 1009.49 1009.69
1011.95 1011.45 1010.95 1010.43 1009.91 1009.40 1008.93 1008.51 1008.13 1007.82 1007.55 1007.31 1007.10 1006.88 1006.66 1006.43 1006.19 1005.94 1005.70 1005.46 1005.24 1005.03 1004.85 1004.68 1004.54 1004.42 1004.33 1004.29 1004.32 1004.41 1004.60 1004.87 1005.22 1005.64 1006.11 1006.60 1007.08 1007.55 1007.97 1008.35 1008.69 1008.99 1009.27
1012.08 1011.53 1010.98 1010.42 1009.87 1009.34 1008.85 1008.40 1008.00 1007.64 1007.33 1007.04 1006.78 1006.54 1006.30 1006.08 1005.86 1005.66 1005.46 1005.26 1005.06 1004.85 1004.62 1004.36 1004.09 1003.81 1003.54 1003.31 1003.15 1003.08 1003.13 1003.31 1003.63 1004.07 1004.60 1005.19 1005.81 1006.42 1007.00 1007.53 1008.00 1008.41 1008.77
1011.95 1011.36 1010.77 1010.18 1009.61 1009.06 1008.55 1008.07 1007.64 1007.25 1006.89 1006.56 1006.26 1006.00 1005.76 1005.57 1005.40 1005.26 1005.13 1004.99 1004.84 1004.64 1004.39 1004.06 1003.67 1003.23 1002.78 1002.36 1002.00 1001.75 1001.66 1001.75 1002.02 1002.46 1003.04 1003.73 1004.48 1005.25 1005.99 1006.67 1007.27 1007.79 1008.22
1011.59 1010.97 1010.35 1009.74 1009.15 1008.59 1008.06 1007.57 1007.11 1006.68 1006.28 1005.92 1005.59 1005.32 1005.09 1004.92 1004.81 1004.74 1004.68 1004.62 1004.51 1004.34 1004.07 1003.68 1003.20 1002.63 1002.02 1001.41 1000.88 1000.48 1000.26 1000.26 1000.49 1000.93 1001.57 1002.35 1003.23 1004.14 1005.02 1005.85 1006.57 1007.19 1007.70
1011.04 1010.39 1009.75 1009.13 1008.53 1007.97 1007.44 1006.93 1006.45 1006.00 1005.57 1005.18 1004.84 1004.56 1004.34 1004.20 1004.13 1004.11 1004.12 1004.11 1004.04 1003.89 1003.61 1003.18 1002.62 1001.95 1001.21 1000.48 999.82 999.31 998.99 998.93 999.14 999.60 1000.29 1001.16 1002.15 1003.18 1004.20 1005.14 1005.97 1006.67 1007.24
1010.35 1009.69 1009.04 1008.41 1007.82 1007.26 1006.73 1006.22 1005.74 1005.27 1004.83 1004.43 1004.08 1003.79 1003.58 1003.46 1003.41 1003.42 1003.45 1003.47 1003.43 1003.28 1002.98 1002.53 1001.92 1001.18 1000.38 999.58 998.85 998.27 997.92 997.83 998.05 998.54 999.29 1000.24 1001.32 1002.45 1003.56 1004.60 1005.50 1006.26 1006.87
1009.61 1008.92 1008.27 1007.64 1007.05 1006.50 1005.99 1005.49 1005.02 1004.56 1004.12 1003.72 1003.36 1003.07 1002.86 1002.73 1002.68 1002.69 1002.72 1002.74 1002.69 1002.53 1002.22 1001.75 1001.12 1000.37 999.55 998.73 997.99 997.41 997.07 997.01 997.25 997.79 998.59 999.60 1000.74 1001.94 1003.11 1004.20 1005.16 1005.95 1006.57
1008.86 1008.16 1007.50 1006.87 1006.29 1005.75 1005.25 1004.78 1004.32 1003.88 1003.46 1003.06 1002.71 1002.42 1002.19 1002.05 1001.98 1001.96 1001.97 1001.95 1001.87 1001.69 1001.37 1000.90 1000.28 999.55 998.77 997.99 997.30 996.78 996.49 996.48 996.77 997.35 998.19 999.23 1000.40 1001.62 1002.82 1003.92 1004.89 1005.69 1006.32
1008.17 1007.45 1006.76 1006.13 1005.55 1005.02 1004.54 1004.08 1003.65 1003.24 1002.84 1002.46 1002.11 1001.82 1001.58 1001.41 1001.30 1001.24 1001.20 1001.15 1001.03 1000.83 1000.50 1000.05 999.47 998.80 998.09 997.41 996.81 996.38 996.17 996.24 996.58 997.19 998.05 999.09 1000.24 1001.44 1002.62 1003.70 1004.64 1005.43 1006.05
1007.55 1006.79 1006.08 1005.43 1004.84 1004.31 1003.84 1003.40 1002.99 1002.60 1002.22 1001.86 1001.53 1001.24 1000.99 1000.79 1000.65 1000.55 1000.46 1000.35 1000.21 999.99 999.67 999.26 998.74 998.17 997.57 997.01 996.54 996.22 996.11 996.24 996.63 997.26 998.10 999.10 1000.20 1001.34 1002.45 1003.48 1004.38 1005.14 1005.75
Thickness
5809 5809 5807 5805 5802 5799 5797 5795 5793 5792 5790 5786 5783 5780 5779 5779 5779 5779 5778 5777 5776 5774 5772 5771 5769 5768 5766 5764 5763 5761 5759 5757 5757 5753 5750 5751 5754 5753 5753 5752 5751 5749 5748
5806 5806 5806 5804 5801 5799 5797 5795 5794 5792 5791 5788 5786 5783 5781 5780 5779 5779 5778 5777 5776 5774 5773 5770 5769 5767 5765 5763 5762 5760 5756 5755 5756 5751 5744 5740 5742 5747 5751 5750 5749 5748 5747
5807 5806 5805 5804 5802 5799 5798 5798 5795 5794 5792 5790 5787 5784 5781 5779 5777 5776 5776 5777 5776 5774 5772 5771 5769 5766 5765 5762 5761 5760 5756 5752 5753 5753 5747 5738 5734 5739 5744 5747 5747 5746 5745
5811 5808 5807 5805 5804 5802 5802 5799 5797 5795 5793 5791 5786 5782 5777 5774 5775 5776 5776 5776 5776 5774 5772 5770 5768 5765 5764 5762 5761 5760 5758 5754 5750 5751 5752 5749 5745 5737 5735 5740 5744 5745 5744
5813 5810 5810 5809 5808 5807 5803 5800 5798 5795 5794 5791 5787 5783 5779 5777 5777 5776 5775 5774 5774 5773 5771 5769 5767 5764 5763 5762 5761 5759 5758 5756 5753 5750 5749 5747 5745 5743 5736 5732 5736 5739 5741
5815 5813 5814 5812 5809 5807 5804 5801 5797 5795 5793 5790 5787 5784 5780 5778 5775 5774 5772 5772 5771 5770 5769 5768 5765 5764 5762 5761 5760 5759 5757 5755 5754 5752 5750 5746 5743 5740 5737 5733 5732 5732 5736
5814 5811 5810 5809 5807 5805 5804 5801 5797 5794 5792 5790 5787 5784 5782 5779 5776 5774 5772 5770 5768 5767 5767 5766 5765 5763 5762 5760 5759 5757 5756 5754 5752 5751 5749 5748 5746 5744 5741 5735 5731 5730 5731
5815 5815 5814 5812 5810 5807 5805 5802 5798 5794 5793 5790 5787 5785 5783 5780 5777 5775 5773 5771 5769 5768 5767 5766 5764 5762 5761 5759 5757 5756 5754 5753 5752 5750 5749 5747 5746 5746 5743 5738 5732 5726 5725
5815 5815 5815 5813 5810 5808 5806 5803 5798 5795 5793 5790 5787 5785 5783 5780 5778 5776 5774 5772 5770 5768 5767 5764 5762 5761 5759 5758 5756 5753 5752 5751 5750 5749 5748 5746 5746 5745 5744 5741 5737 5729 5720
5814 5814 5813 5812 5811 5809 5806 5803 5799 5795 5793 5790 5787 5786 5783 5781 5778 5775 5772 5771 5769 5767 5765 5763 5761 5760 5758 5757 5754 5752 5750 5749 5748 5747 5746 5745 5744 5743 5742 5741 5738 5734 5728
5811 5811 5811 5810 5809 5806 5803 5801 5798 5795 5792 5790 5787 5785 5783 5780 5778 5775 5772 5770 5768 5766 5763 5761 5759 5757 5756 5755 5752 5750 5748 5746 5745 5744 5743 5742 5743 5740 5739 5738 5736 5733 5730
5809 5808 5807 5806 5803 5800 5799 5798 5797 5793 5791 5789 5786 5784 5781 5778 5775 5773 5771 5769 5766 5764 5762 5760 5757 5755 5754 5752 5750 5747 5746 5744 5742 5741 5741 5740 5740 5738 5737 5735 5734 5732 5730
5805 5804 5802 5800 5798 5796 5795 5794 5793 5791 5789 5787 5784 5781 5779 5776 5773 5771 5769 5767 5765 5762 5760 5758 5755 5753 5751 5749 5748 5746 5744 5743 5741 5740 5738 5737 5736 5734 5733 5733 5731 5730 5730
5799 5797 5796 5796 5795 5794 5792 5790 5788 5788 5785 5783 5780 5777 5776 5774 5772 5770 5767 5764 5762 5760 5757 5756 5753 5751 5749 5748 5747 5744 5742 5741 5740 5738 5737 5735 5734 5732 5730 5730 5728 5727 5724
5792 5791 5790 5790 5791 5790 5789 5787 5785 5784 5782 5778 5775 5774 5773 5771 5768 5766 5764 5762 5760 5759 5756 5753 5751 5749 5747 5746 5744 5741 5740 5737 5736 5735 5735 5734 5733 5732 5730 5728 5725 5724 5720
5787 5787 5787 5786 5785 5785 5784 5783 5781 5780 5777 5773 5771 5770 5769 5766 5764 5762 5760 5757 5756 5755 5752 5749 5747 5745 5745 5744 5742 5740 5737 5734 5732 5731 5731 5731 5730 5729 5728 5726 5725 5723 5719
5782 5781 5781 5781 5781 5780 5779 5778 5777 5775 5772 5769 5767 5765 5763 5761 5759 5758 5755 5752 5750 5749 5747 5745 5744 5742 5741 5741 5739 5736 5734 5732 5730 5728 5726 5727 5726 5724 5723 5722 5721 5719 5718
5777 5777 5777 5777 5776 5775 5774 5773 5773 5770 5766 5763 5761 5759 5757 5755 5754 5752 5749 5747 5745 5743 5742 5740 5739 5738 5738 5738 5735 5733 5730 5728 5727 5725 5724 5721 5720 5719 5717 5715 5713 5712 5712
5772 5772 5773 5772 5769 5768 5767 5766 5764 5763 5760 5758 5756 5755 5752 5748 5747 5745 5743 5742 5740 5738 5737 5736 5734 5733 5733 5733 5732 5729 5726 5723 5722 5721 5720 5718 5716 5715 5712 5709 5706 5705 5706
5767 5766 5765 5763 5761 5761 5761 5757 5754 5753 5753 5753 5752 5750 5748 5744 5742 5740 5739 5738 5735 5733 5732 5731 5730 5729 5729 5729 5727 5724 5721 5717 5716 5715 5714 5713 5712 5710 5707 5704 5701 5698 5699
5760 5759 5756 5753 5752 5753 5752 5748 5746 5745 5747 5747 5746 5743 5742 5741 5739 5737 5735 5731 5730 5728 5727 5726 5726 5725 5725 5724 5723 5720 5716 5713 5711 5709 5708 5708 5707 5705 5703 5700 5698 5696 5695
5750 5749 5745 5743 5744 5744 5742 5738 5737 5739 5739 5738 5737 5735 5734 5734 5734 5730 5727 5725 5723 5720 5719 5718 5718 5719 5719 5719 5717 5715 5712 5710 5706 5705 5704 5703 5702 5699 5697 5695 5694 5691 5688
5740 5738 5735 5733 5733 5733 5732 5729 5729 5731 5730 5729 5728 5727 5727 5725 5724 5721 5719 5717 5715 5713 5712 5711 5710 5711 5711 5711 5711 5709 5707 5704 5702 5701 5700 5697 5695 5693 5691 5690 5687 5685 5681
5730 5727 5724 5722 5721 5722 5722 5721 5721 5721 5720 5718 5717 5717 5716 5716 5715 5713 5711 5709 5707 5706 5705 5704 5703 5704 5704 5704 5704 5702 5700 5698 5696 5694 5692 5689 5687 5686 5685 5683 5681 5679 5677
5719 5718 5714 5712 5711 5712 5711 5711 5711 5710 5708 5708 5708 5707 5707 5706 5706 5705 5704 5703 5703 5702 5700 5699 5698 5697 5697 5699 5698 5695 5693 5691 5689 5686 5682 5679 5677 5676 5675 5674 5674 5672 5670
5709 5707 5704 5702 5702 5702 5701 5702 5702 5700 5697 5695 5696 5696 5696 5697 5696 5695 5695 5696 5696 5696 5695 5693 5692 5693 5693 5692 5691 5689 5688 5685 5682 5677 5675 5673 5672 5670 5669 5668 5667 5666 5665